Regional Weather Roundup
Issued by NWS Green Bay, WI

Home | Current Version | Previous Version | Text Only | Print | Product List | Glossary On
Versions: 1 2 3 4 5 6 7 8 9 10 11 12 13 14 15 16 17 18 19 20 21 22 23 24 25 26 27 28 29 30 31 32 33 34 35 36 37 38 39 40 41 42 43 44 45 46 47 48 49 50
000
ASUS43 KGRB 291500
RWRGRB

NORTH-CENTRAL AND NORTHEAST WISCONSIN REGIONAL WEATHER ROUNDUP
NATIONAL WEATHER SERVICE GREEN BAY WI
1000 AM CDT FRI JUL 29 2016

WIZ005-009-010>012-018-019-291600-
NORTH CENTRAL WISCONSIN

CITY           SKY/WX    TMP DP  RH WIND       PRES   REMARKS
IRONWOOD       SUNNY     66  55  68 N7        30.09F
MANITOWISH WTR SUNNY     65  56  72 NE8       30.10F
ARBOR VITAE    NOT AVBL
EAGLE RIVER    NOT AVBL
LAND O LAKES   NOT AVBL
RHINELANDER    SUNNY     67  55  65 NE5       30.09F
PHILLIPS       SUNNY     65  55  70 E5        30.09F
ANTIGO         NOT AVBL
TOMAHAWK       NOT AVBL
MERRILL        NOT AVBL
$$

WIZ013-073-291600-
NORTHEAST WISCONSIN

CITY           SKY/WX    TMP DP  RH WIND       PRES   REMARKS
IRON MOUNTAIN  SUNNY     70  58  65 NE6       30.07F
MARINETTE      MOSUNNY  N/A N/A N/A E12       30.06R
$$

WIZ017-030-035>037-045-291600-
CENTRAL WISCONSIN

CITY           SKY/WX    TMP DP  RH WIND       PRES   REMARKS
MEDFORD        NOT AVBL
WAUSAU         SUNNY     69  60  73 E8        30.05S
MOSINEE          N/A     68  63  83 NE7       30.07S
MARSHFIELD     MOSUNNY   69  60  73 E8        30.06R
WISC RAPIDS    CLOUDY    67  58  72 E6        30.06S
STEVENS POINT  NOT AVBL
WAUPACA        NOT AVBL
SHAWANO        NOT AVBL
CLINTONVILLE   CLOUDY    64  59  82 NE8       30.05R
WAUTOMA        CLOUDY    62  60  93 NE7       30.04S
$$

WIZ038-039-048-051-291600-
FOX VALLEY

CITY           SKY/WX    TMP DP  RH WIND       PRES   REMARKS
NWS GREEN BAY  CLOUDY    67  65  93 N9        30.03S
APPLETON       CLOUDY    64  63  94 VRB5      30.02R
OSHKOSH        CLOUDY    68  64  87 NE8       30.02R
FOND DU LAC    LGT RAIN  68  65  90 N8        30.01F
$$

WIZ022-050-052-291600-
EAST CENTRAL WISCONSIN

CITY           SKY/WX    TMP DP  RH WIND       PRES   REMARKS
EPHRAIM        FAIR      72  61  68 E5        30.04S
WASHINGTON ISL NOT AVBL
STURGEON BAY   CLOUDY    72  62  71 E9        30.05S
MANITOWOC      NOT AVBL
SHEBOYGAN      CLOUDY    69  64  84 NE10      30.01S
$$

LMZ563-521-522-541>543-291600-
LAKESHORE

STATION/POSITION TIME  TEMP    WIND        PRES    VSBY  WAVE
                       AIR SEA DIR/SP/G                  HT/PER
                 (UTC) (F)     (DEG/KT/KT) (MB)    (MI)  (FT/S)
SHEBOYGAN LKSHOR 1400   65      40/  6/  7 1016.3R
KEWAUNEE LKSHORE 1400   64      40/  4/  6 1016.4R
NORTHPORT PIER   1400   71     100/  8/ 10 1017.6R
N MID LAKE BUOY  1350   68 69  100/ 14/ 17 1017.1R         3/ 4
SISTER BAY LKSHO 1406   77      40/  4/  7   N/A
CHAMBERS ISLAND  1400   69      40/  7/ 11 1017.3S
MENOMINEE LKSHOR 1400   66      20/ 12/ 13 1016.4F
$$




USA.gov is the U.S. government's official web portal to all federal, state and local government web resources and services.